Weather Roundup
Issued by NWS

Home | Current Version | Previous Version | Graphics & Text | Print | Product List | Glossary On
Versions: 1 2 3 4 5 6 7 8 9 10 11 12 13 14 15 16 17 18 19 20 21 22 23 24 25 26 27 28 29 30 31 32 33 34 35 36 37 38 39 40 41 42 43 44 45 46 47 48 49 50
518
NZUS93 KARX 240310
HRRWXR

CURRENT HOURLY OBSERVATIONS ACROSS
MUCH OF THE UPPER MISSISSIPPI VALLEY
NATIONAL WEATHER SERVICE LA CROSSE WI
1000 PM CDT SUN JUL 23 2017


...SOUTHEAST MINNESOTA...


CITY           SKY/WX    TMP DP  RH WIND       PRES   REMARKS
ROCHESTER      PTCLDY    63  57  81 N8        29.99R
ROCHESTER/MAYO CLOUDY    66  56  71 N5        30.00R
WINONA         CLOUDY    68  61  77 N5        29.97S
AUSTIN         CLEAR     64  57  77 NE6       29.99R
ALBERT LEA     CLEAR     66  59  77 NE7       29.99R
DODGE CENTER   CLEAR     63  57  82 NE3       30.00R
PRESTON        CLEAR     60  56  87 N6        29.99R
OWATONNA       CLEAR     63  57  82 NE5       30.00R
FARIBAULT      CLEAR     64  57  77 NE5       30.00R
$$

...ELSEWHERE IN MINNESOTA...


CITY           SKY/WX    TMP DP  RH WIND       PRES   REMARKS
MINNEAPOLIS    CLEAR     69  57  65 NE6       30.00R
INTNL FALLS    CLEAR     56  54  93 E3        30.00R
DULUTH         PTCLDY    57  54  89 CALM      30.05R
RED WING       CLOUDY    66  55  68 NE5       29.99R
REDWOOD FALLS  PTCLDY    69  60  73 N3        29.99R
MANKATO        CLEAR     68  60  75 E6        30.00R
WORTHINGTON    CLEAR     63  59  87 N6        30.02R
FAIRMONT       CLEAR     65  62  90 N5        29.99S
$$

...SOUTHWEST WISCONSIN...


CITY           SKY/WX    TMP DP  RH WIND       PRES   REMARKS
LA CROSSE      CLEAR     68  61  78 N9        29.95R
PRAIRIE DU CHI CLEAR     70  58  66 N5        29.92R
BOSCOBEL       CLEAR     70  60  70 CALM      29.92R
LONE ROCK      CLEAR     71  60  68 NW6       29.91R
PLATTEVILLE    CLEAR     67  65  93 N5        29.92R
FORT MC COY    CLEAR     65  58  76 N7        29.96R
CAMP DOUGLAS   CLEAR     64  60  85 NW6       29.94R
MAUSTON-NEW LI CLEAR     67  60  80 NW3       29.93S
VIROQUA        FAIR      64  62  92 CALM      29.95S
WIS DELLS      MOCLDY    69  59  70 N7        29.92R
$$

...ELSEWHERE IN WISCONSIN...


CITY           SKY/WX    TMP DP  RH WIND       PRES   REMARKS
MILWAUKEE      MOCLDY    69  64  84 N16G22    29.88S
MADISON        PTCLDY    70  61  73 NW7       29.88R
GREEN BAY      CLOUDY    64  58  80 N14       29.93S
EAU CLAIRE     CLOUDY    65  57  75 N7        29.98S
BLACK RVR FLS  CLOUDY    66  59  77 N3        29.96R
MEDFORD        CLOUDY    61  55  79 NE9       30.00R
WAUSAU         MOCLDY    64  54  69 NE5       29.97R
WIS RAPIDS     CLEAR     67  57  70 NE8       29.96R
MARSHFIELD     CLOUDY    65  56  72 NE15      29.96R
RICE LAKE      CLOUDY    64  55  75 NE9       30.03S
$$

...NORTHEAST IOWA...


CITY           SKY/WX    TMP DP  RH WIND       PRES   REMARKS
WATERLOO       CLEAR     65  62  90 NW3       29.94R
DUBUQUE        CLEAR     67  61  81 NW8       29.92R
DECORAH        CLEAR     64  59  82 N6        29.95R
MASON CITY     PTCLDY    64  60  87 N7        29.99R
CHARLES CITY   CLEAR     66  64  94 N7        29.97R
OELWEIN          N/A    N/A N/A N/A MISG        N/A
$$

...ELSEWHERE IN IOWA...


CITY           SKY/WX    TMP DP  RH WIND       PRES   REMARKS
DES MOINES     PTCLDY    75  59  57 N10G18    29.94R
IOWA CITY      CLEAR     76  62  62 N7        29.92R
FORT DODGE     CLEAR     66  57  72 CALM      29.99R
MARSHALLTOWN   CLEAR     66  63  90 N7        29.95R
CEDAR RAPIDS   CLEAR     68  65  90 N5        29.92R
$$

...NORTHERN ILLINOIS...


CITY           SKY/WX    TMP DP  RH WIND       PRES   REMARKS
CHICAGO-OHARE  PTCLDY    71  64  78 NW6       29.84R
CHICAGO-MIDWAY PTCLDY    72  64  76 NW6       29.83R
MOLINE         CLEAR     75  61  61 NW8       29.88R
ROCKFORD       PTCLDY    74  65  73 NW7       29.88R
PEORIA         CLEAR     76  63  64 NW6       29.87R
$$

NOTE: "FAIR" INDICATES FEW OR NO CLOUDS BELOW 12,000 FEET WITH NO
SIGNIFICANT WEATHER AND/OR OBSTRUCTIONS TO VISIBILITY. WIND
SPEEDS ARE IN MILES-PER-HOUR.




USA.gov is the U.S. government's official web portal to all federal, state and local government web resources and services.